Time,TemperatureF,DewpointF,PressureIn,WindDirection,WindDirectionDegrees,WindSpeedMPH,WindSpeedGustMPH,Humidity,HourlyPrecipIn,Conditions,Clouds,dailyrainin,SoftwareType,DateUTC
2013-05-10 00:02:00,43.9,25.0,29.25,NNE,22,8.0,11.0,47,0.00,,,0.00,meteohub,2013-05-10 05:02:00,
2013-05-10 00:07:00,43.7,25.3,29.25,NNE,22,9.0,11.0,48,0.00,,,0.00,meteohub,2013-05-10 05:07:00,
2013-05-10 00:12:00,43.5,24.6,29.25,NNE,22,10.0,11.0,47,0.00,,,0.00,meteohub,2013-05-10 05:12:00,
2013-05-10 00:17:00,43.5,24.6,29.25,NE,45,8.0,11.0,47,0.00,,,0.00,meteohub,2013-05-10 05:17:00,
2013-05-10 00:22:00,43.3,24.4,29.25,NNE,22,9.0,11.0,47,0.00,,,0.00,meteohub,2013-05-10 05:22:00,
2013-05-10 00:27:00,43.3,24.4,29.25,NNE,22,10.0,12.0,47,0.00,,,0.00,meteohub,2013-05-10 05:27:00,
2013-05-10 00:32:00,43.2,24.3,29.25,NNE,22,6.0,12.0,47,0.00,,,0.00,meteohub,2013-05-10 05:32:00,
2013-05-10 00:37:00,43.0,24.3,29.25,NNE,22,8.0,12.0,47,0.00,,,0.00,meteohub,2013-05-10 05:37:00,
2013-05-10 00:42:00,42.8,24.1,29.25,NNE,22,8.0,11.0,47,0.00,,,0.00,meteohub,2013-05-10 05:42:00,
2013-05-10 00:47:00,42.8,24.1,29.28,NE,45,10.0,11.0,47,0.00,,,0.00,meteohub,2013-05-10 05:47:00,
2013-05-10 00:52:00,42.6,24.3,29.28,NE,45,8.0,12.0,48,0.00,,,0.00,meteohub,2013-05-10 05:52:00,
2013-05-10 00:57:00,42.4,24.3,29.28,NNE,22,8.0,12.0,48,0.00,,,0.00,meteohub,2013-05-10 05:57:00,
2013-05-10 01:02:00,42.4,24.3,29.25,NE,45,10.0,11.0,48,0.00,,,0.00,meteohub,2013-05-10 06:02:00,
2013-05-10 01:07:00,42.4,24.3,29.25,NNE,22,8.0,11.0,48,0.00,,,0.00,meteohub,2013-05-10 06:07:00,
2013-05-10 01:12:00,42.3,24.1,29.25,NE,45,9.0,11.0,48,0.00,,,0.00,meteohub,2013-05-10 06:12:00,
2013-05-10 01:17:00,42.3,24.1,29.25,NE,45,7.0,11.0,48,0.00,,,0.00,meteohub,2013-05-10 06:17:00,
2013-05-10 01:22:00,42.1,23.9,29.25,NNE,22,9.0,11.0,48,0.00,,,0.00,meteohub,2013-05-10 06:22:00,
2013-05-10 01:27:00,42.1,24.3,29.25,NNE,22,7.0,11.0,49,0.00,,,0.00,meteohub,2013-05-10 06:27:00,
2013-05-10 01:32:00,41.9,24.3,29.25,NNE,22,6.0,11.0,49,0.00,,,0.00,meteohub,2013-05-10 06:32:00,
2013-05-10 01:37:00,41.9,24.3,29.25,NNE,22,9.0,11.0,49,0.00,,,0.00,meteohub,2013-05-10 06:37:00,
2013-05-10 01:42:00,42.1,24.3,29.25,NE,45,9.0,11.0,49,0.00,,,0.00,meteohub,2013-05-10 06:42:00,
2013-05-10 01:47:00,42.1,24.3,29.25,NNE,22,9.0,11.0,49,0.00,,,0.00,meteohub,2013-05-10 06:47:00,
2013-05-10 01:52:00,42.1,24.3,29.25,NE,45,9.0,11.0,49,0.00,,,0.00,meteohub,2013-05-10 06:52:00,
2013-05-10 01:57:00,42.3,24.4,29.25,NE,45,8.0,13.0,49,0.00,,,0.00,meteohub,2013-05-10 06:57:00,
2013-05-10 02:02:00,42.3,24.4,29.25,NNE,22,8.0,13.0,49,0.00,,,0.00,meteohub,2013-05-10 07:02:00,
2013-05-10 02:07:00,42.3,24.4,29.25,NNE,22,8.0,13.0,49,0.00,,,0.00,meteohub,2013-05-10 07:07:00,
2013-05-10 02:12:00,42.3,24.4,29.25,NE,45,9.0,11.0,49,0.00,,,0.00,meteohub,2013-05-10 07:12:00,
2013-05-10 02:17:00,42.3,24.4,29.22,NNE,22,8.0,11.0,49,0.00,,,0.00,meteohub,2013-05-10 07:17:00,
2013-05-10 02:22:00,42.3,24.4,29.22,NNE,22,9.0,11.0,49,0.00,,,0.00,meteohub,2013-05-10 07:22:00,
2013-05-10 02:27:00,42.4,24.6,29.22,NE,45,10.0,11.0,49,0.00,,,0.00,meteohub,2013-05-10 07:27:00,
2013-05-10 02:32:00,42.4,24.6,29.22,NE,45,10.0,10.0,49,0.00,,,0.00,meteohub,2013-05-10 07:32:00,
2013-05-10 02:37:00,42.4,24.6,29.22,NNE,22,7.0,10.0,49,0.00,,,0.00,meteohub,2013-05-10 07:37:00,
2013-05-10 02:42:00,42.4,24.6,29.22,NE,45,9.0,10.0,49,0.00,,,0.00,meteohub,2013-05-10 07:42:00,
2013-05-10 02:47:00,42.4,24.6,29.22,NE,45,7.0,10.0,49,0.00,,,0.00,meteohub,2013-05-10 07:47:00,
2013-05-10 02:52:00,42.4,24.6,29.22,NE,45,6.0,10.0,49,0.00,,,0.00,meteohub,2013-05-10 07:52:00,
2013-05-10 02:57:00,42.3,24.4,29.22,NE,45,6.0,10.0,49,0.00,,,0.00,meteohub,2013-05-10 07:57:00,
2013-05-10 03:02:00,42.3,24.4,29.22,NNE,22,6.0,9.0,49,0.00,,,0.00,meteohub,2013-05-10 08:02:00,
2013-05-10 03:07:00,42.3,24.4,29.22,NNE,22,9.0,9.0,49,0.00,,,0.00,meteohub,2013-05-10 08:07:00,
2013-05-10 03:12:00,42.3,24.4,29.22,NNE,22,6.0,10.0,49,0.00,,,0.00,meteohub,2013-05-10 08:12:00,
2013-05-10 03:17:00,42.1,24.3,29.22,NNE,22,6.0,10.0,49,0.00,,,0.00,meteohub,2013-05-10 08:17:00,
2013-05-10 03:22:00,41.7,24.1,29.22,NNE,22,6.0,10.0,49,0.00,,,0.00,meteohub,2013-05-10 08:22:00,
2013-05-10 03:27:00,41.5,23.9,29.22,NNE,22,9.0,9.0,49,0.00,,,0.00,meteohub,2013-05-10 08:27:00,
2013-05-10 03:32:00,41.4,24.1,29.22,NNE,22,7.0,13.0,50,0.00,,,0.00,meteohub,2013-05-10 08:32:00,
2013-05-10 03:37:00,41.2,24.1,29.22,NE,45,8.0,13.0,50,0.00,,,0.00,meteohub,2013-05-10 08:37:00,
2013-05-10 03:42:00,41.2,24.1,29.22,NE,45,6.0,13.0,50,0.00,,,0.00,meteohub,2013-05-10 08:42:00,
2013-05-10 03:47:00,40.8,24.1,29.22,NE,45,7.0,14.0,51,0.00,,,0.00,meteohub,2013-05-10 08:47:00,
2013-05-10 03:52:00,40.6,23.9,29.22,NNE,22,9.0,14.0,51,0.00,,,0.00,meteohub,2013-05-10 08:52:00,
2013-05-10 03:57:00,40.5,23.7,29.22,NNE,22,9.0,10.0,51,0.00,,,0.00,meteohub,2013-05-10 08:57:00,
2013-05-10 04:02:00,40.3,23.7,29.22,ENE,68,7.0,11.0,51,0.00,,,0.00,meteohub,2013-05-10 09:02:00,
2013-05-10 04:07:00,40.1,23.9,29.22,NE,45,11.0,11.0,52,0.00,,,0.00,meteohub,2013-05-10 09:07:00,
2013-05-10 04:12:00,39.9,23.7,29.22,NNE,22,8.0,11.0,52,0.00,,,0.00,meteohub,2013-05-10 09:12:00,
2013-05-10 04:17:00,39.7,23.5,29.22,NE,45,7.0,11.0,52,0.00,,,0.00,meteohub,2013-05-10 09:17:00,
2013-05-10 04:22:00,39.4,23.7,29.22,NNE,22,6.0,11.0,53,0.00,,,0.00,meteohub,2013-05-10 09:22:00,
2013-05-10 04:27:00,39.2,23.5,29.22,NE,45,5.0,9.0,53,0.00,,,0.00,meteohub,2013-05-10 09:27:00,
2013-05-10 04:32:00,39.0,23.9,29.22,NNE,22,5.0,9.0,54,0.00,,,0.00,meteohub,2013-05-10 09:32:00,
2013-05-10 04:37:00,38.8,24.1,29.22,NNE,22,5.0,6.0,55,0.00,,,0.00,meteohub,2013-05-10 09:37:00,
2013-05-10 04:42:00,38.8,24.1,29.22,NNE,22,5.0,6.0,55,0.00,,,0.00,meteohub,2013-05-10 09:42:00,
2013-05-10 04:47:00,38.7,24.4,29.25,NNE,22,5.0,7.0,56,0.00,,,0.00,meteohub,2013-05-10 09:47:00,
2013-05-10 04:52:00,38.5,24.3,29.25,NNE,22,6.0,7.0,56,0.00,,,0.00,meteohub,2013-05-10 09:52:00,
2013-05-10 04:57:00,38.5,24.3,29.25,NNE,22,5.0,7.0,56,0.00,,,0.00,meteohub,2013-05-10 09:57:00,
2013-05-10 05:02:00,38.3,24.1,29.25,NNE,22,5.0,7.0,56,0.00,,,0.00,meteohub,2013-05-10 10:02:00,
2013-05-10 05:07:00,38.1,24.3,29.25,NNE,22,6.0,7.0,57,0.00,,,0.00,meteohub,2013-05-10 10:07:00,
2013-05-10 05:12:00,37.9,24.1,29.25,NNE,22,6.0,6.0,57,0.00,,,0.00,meteohub,2013-05-10 10:12:00,
2013-05-10 05:17:00,37.9,24.1,29.25,NE,45,5.0,6.0,57,0.00,,,0.00,meteohub,2013-05-10 10:17:00,
2013-05-10 05:22:00,37.8,24.3,29.25,NE,45,5.0,6.0,58,0.00,,,0.00,meteohub,2013-05-10 10:22:00,
2013-05-10 05:27:00,37.6,24.3,29.25,NE,45,6.0,6.0,58,0.00,,,0.00,meteohub,2013-05-10 10:27:00,
2013-05-10 05:32:00,37.4,24.1,29.25,NNE,22,5.0,6.0,58,0.00,,,0.00,meteohub,2013-05-10 10:32:00,
2013-05-10 05:37:00,37.4,24.4,29.25,NNE,22,5.0,6.0,59,0.00,,,0.00,meteohub,2013-05-10 10:37:00,
2013-05-10 05:42:00,37.2,24.6,29.25,NE,45,6.0,6.0,60,0.00,,,0.00,meteohub,2013-05-10 10:42:00,
2013-05-10 05:47:00,37.0,24.4,29.25,NNE,22,6.0,6.0,60,0.00,,,0.00,meteohub,2013-05-10 10:47:00,
2013-05-10 05:52:00,37.0,24.4,29.25,NNE,22,6.0,6.0,60,0.00,,,0.00,meteohub,2013-05-10 10:52:00,
2013-05-10 05:57:00,37.0,24.8,29.25,NE,45,8.0,8.0,61,0.00,,,0.00,meteohub,2013-05-10 10:57:00,
2013-05-10 06:02:00,37.0,24.8,29.25,NNE,22,8.0,8.0,61,0.00,,,0.00,meteohub,2013-05-10 11:02:00,
2013-05-10 06:07:00,37.0,24.8,29.25,NNE,22,6.0,8.0,61,0.00,,,0.00,meteohub,2013-05-10 11:07:00,
2013-05-10 06:12:00,37.0,24.8,29.25,NNE,22,8.0,9.0,61,0.00,,,0.00,meteohub,2013-05-10 11:12:00,
2013-05-10 06:17:00,37.0,24.8,29.25,NNE,22,8.0,9.0,61,0.00,,,0.00,meteohub,2013-05-10 11:17:00,
2013-05-10 06:22:00,37.0,25.3,29.25,NNE,22,6.0,9.0,62,0.00,,,0.00,meteohub,2013-05-10 11:22:00,
2013-05-10 06:27:00,37.0,25.3,29.25,NE,45,7.0,9.0,62,0.00,,,0.00,meteohub,2013-05-10 11:27:00,
2013-05-10 06:32:00,37.0,24.8,29.25,NNE,22,8.0,9.0,61,0.00,,,0.00,meteohub,2013-05-10 11:32:00,
2013-05-10 06:37:00,37.2,25.0,29.25,NNE,22,8.0,9.0,61,0.00,,,0.00,meteohub,2013-05-10 11:37:00,
2013-05-10 06:42:00,37.2,25.0,29.25,NNE,22,8.0,9.0,61,0.00,,,0.00,meteohub,2013-05-10 11:42:00,
2013-05-10 06:47:00,37.4,24.8,29.25,NNE,22,8.0,9.0,60,0.00,,,0.00,meteohub,2013-05-10 11:47:00,
2013-05-10 06:52:00,37.6,25.0,29.25,NNE,22,6.0,9.0,60,0.00,,,0.00,meteohub,2013-05-10 11:52:00,
2013-05-10 06:57:00,37.6,25.0,29.25,NE,45,7.0,9.0,60,0.00,,,0.00,meteohub,2013-05-10 11:57:00,
2013-05-10 07:02:00,37.8,24.8,29.25,NE,45,6.0,9.0,59,0.00,,,0.00,meteohub,2013-05-10 12:02:00,
2013-05-10 07:07:00,37.9,25.0,29.25,NNE,22,8.0,10.0,59,0.00,,,0.00,meteohub,2013-05-10 12:07:00,
2013-05-10 07:12:00,38.1,25.2,29.25,NNE,22,8.0,10.0,59,0.00,,,0.00,meteohub,2013-05-10 12:12:00,
2013-05-10 07:17:00,38.5,25.0,29.28,NNE,22,9.0,10.0,58,0.00,,,0.00,meteohub,2013-05-10 12:17:00,
2013-05-10 07:22:00,38.7,24.8,29.28,NNE,22,9.0,10.0,57,0.00,,,0.00,meteohub,2013-05-10 12:22:00,
2013-05-10 07:27:00,38.8,25.0,29.28,NNE,22,8.0,10.0,57,0.00,,,0.00,meteohub,2013-05-10 12:27:00,
2013-05-10 07:32:00,39.4,25.0,29.28,NNE,22,6.0,11.0,56,0.00,,,0.00,meteohub,2013-05-10 12:32:00,
2013-05-10 07:37:00,39.7,25.0,29.28,NE,45,8.0,11.0,55,0.00,,,0.00,meteohub,2013-05-10 12:37:00,
2013-05-10 07:42:00,39.9,25.2,29.28,NE,45,7.0,11.0,55,0.00,,,0.00,meteohub,2013-05-10 12:42:00,
2013-05-10 07:47:00,40.3,25.5,29.28,NE,45,6.0,9.0,55,0.00,,,0.00,meteohub,2013-05-10 12:47:00,
2013-05-10 07:52:00,40.5,25.2,29.28,NE,45,5.0,8.0,54,0.00,,,0.00,meteohub,2013-05-10 12:52:00,
2013-05-10 07:57:00,40.3,24.6,29.28,NE,45,6.0,10.0,53,0.00,,,0.00,meteohub,2013-05-10 12:57:00,
2013-05-10 08:02:00,41.0,25.2,29.28,NE,45,6.0,10.0,53,0.00,,,0.00,meteohub,2013-05-10 13:02:00,
2013-05-10 08:07:00,41.5,25.3,29.28,NNE,22,4.0,10.0,52,0.00,,,0.00,meteohub,2013-05-10 13:07:00,
2013-05-10 08:12:00,41.5,24.8,29.28,ENE,68,8.0,10.0,51,0.00,,,0.00,meteohub,2013-05-10 13:12:00,
2013-05-10 08:17:00,41.9,24.6,29.28,NNE,22,9.0,10.0,50,0.00,,,0.00,meteohub,2013-05-10 13:17:00,
2013-05-10 08:22:00,42.3,25.5,29.28,NNE,22,5.0,10.0,51,0.00,,,0.00,meteohub,2013-05-10 13:22:00,
2013-05-10 08:27:00,42.8,25.5,29.28,NE,45,8.0,9.0,50,0.00,,,0.00,meteohub,2013-05-10 13:27:00,
2013-05-10 08:32:00,43.2,25.3,29.28,NNE,22,6.0,9.0,49,0.00,,,0.00,meteohub,2013-05-10 13:32:00,
2013-05-10 08:37:00,43.5,25.2,29.28,NNE,22,6.0,8.0,48,0.00,,,0.00,meteohub,2013-05-10 13:37:00,
2013-05-10 08:42:00,43.5,25.2,29.28,NE,45,10.0,10.0,48,0.00,,,0.00,meteohub,2013-05-10 13:42:00,
2013-05-10 08:47:00,44.1,25.2,29.28,ENE,68,6.0,10.0,47,0.00,,,0.00,meteohub,2013-05-10 13:47:00,
2013-05-10 08:52:00,44.8,25.9,29.28,NE,45,9.0,10.0,47,0.00,,,0.00,meteohub,2013-05-10 13:52:00,
2013-05-10 08:57:00,44.8,25.3,29.28,NE,45,6.0,10.0,46,0.00,,,0.00,meteohub,2013-05-10 13:57:00,
2013-05-10 09:02:00,45.1,24.6,29.25,NE,45,7.0,9.0,44,0.00,,,0.00,meteohub,2013-05-10 14:02:00,
2013-05-10 09:07:00,45.1,24.1,29.25,NE,45,7.0,9.0,43,0.00,,,0.00,meteohub,2013-05-10 14:07:00,
2013-05-10 09:12:00,45.5,25.0,29.25,NNE,22,6.0,9.0,44,0.00,,,0.00,meteohub,2013-05-10 14:12:00,
2013-05-10 09:17:00,46.4,25.7,29.25,NE,45,8.0,9.0,44,0.00,,,0.00,meteohub,2013-05-10 14:17:00,
2013-05-10 09:22:00,46.0,24.8,29.25,NE,45,7.0,8.0,43,0.00,,,0.00,meteohub,2013-05-10 14:22:00,
2013-05-10 09:27:00,46.2,24.4,29.25,NE,45,6.0,9.0,42,0.00,,,0.00,meteohub,2013-05-10 14:27:00,
2013-05-10 09:32:00,46.8,25.0,29.25,NE,45,7.0,9.0,42,0.00,,,0.00,meteohub,2013-05-10 14:32:00,
2013-05-10 09:37:00,46.9,24.4,29.25,ENE,68,6.0,9.0,41,0.00,,,0.00,meteohub,2013-05-10 14:37:00,
2013-05-10 09:42:00,47.7,24.6,29.25,NE,45,7.0,9.0,40,0.00,,,0.00,meteohub,2013-05-10 14:42:00,
2013-05-10 09:47:00,48.2,24.4,29.25,ENE,68,6.0,9.0,39,0.00,,,0.00,meteohub,2013-05-10 14:47:00,
2013-05-10 09:52:00,48.6,24.8,29.25,ENE,68,5.0,9.0,39,0.00,,,0.00,meteohub,2013-05-10 14:52:00,
2013-05-10 09:57:00,50.0,25.5,29.25,NE,45,6.0,9.0,38,0.00,,,0.00,meteohub,2013-05-10 14:57:00,
2013-05-10 10:03:00,50.5,25.3,29.25,NE,45,5.0,9.0,37,0.00,,,0.00,meteohub,2013-05-10 15:03:00,
2013-05-10 10:08:00,50.9,25.5,29.25,NE,45,6.0,8.0,37,0.00,,,0.00,meteohub,2013-05-10 15:08:00,
2013-05-10 10:13:00,51.1,25.7,29.22,North,0,4.0,9.0,37,0.00,,,0.00,meteohub,2013-05-10 15:13:00,
2013-05-10 10:18:00,51.6,26.2,29.22,NE,45,6.0,9.0,37,0.00,,,0.00,meteohub,2013-05-10 15:18:00,
2013-05-10 10:23:00,50.9,25.0,29.22,NNE,22,6.0,9.0,36,0.00,,,0.00,meteohub,2013-05-10 15:23:00,
2013-05-10 10:28:00,52.2,26.1,29.22,North,0,4.0,9.0,36,0.00,,,0.00,meteohub,2013-05-10 15:28:00,
2013-05-10 10:34:00,52.3,26.2,29.22,NNE,22,5.0,8.0,36,0.00,,,0.00,meteohub,2013-05-10 15:34:00,
2013-05-10 10:39:00,52.5,25.7,29.22,NE,45,4.0,7.0,35,0.00,,,0.00,meteohub,2013-05-10 15:39:00,
2013-05-10 10:44:00,52.7,25.9,29.22,NE,45,4.0,9.0,35,0.00,,,0.00,meteohub,2013-05-10 15:44:00,
2013-05-10 10:49:00,53.1,26.2,29.22,NE,45,6.0,9.0,35,0.00,,,0.00,meteohub,2013-05-10 15:49:00,
2013-05-10 10:54:00,54.1,26.4,29.22,NE,45,4.0,9.0,34,0.00,,,0.00,meteohub,2013-05-10 15:54:00,
2013-05-10 10:59:00,54.9,27.1,29.22,NE,45,3.0,9.0,34,0.00,,,0.00,meteohub,2013-05-10 15:59:00,
2013-05-10 11:04:00,55.9,28.0,29.22,NNW,338,4.0,8.0,34,0.00,,,0.00,meteohub,2013-05-10 16:04:00,
2013-05-10 11:09:00,56.3,28.4,29.22,NE,45,3.0,6.0,34,0.00,,,0.00,meteohub,2013-05-10 16:09:00,
2013-05-10 11:15:00,57.4,29.3,29.22,NNW,338,3.0,7.0,34,0.00,,,0.00,meteohub,2013-05-10 16:15:00,
2013-05-10 11:20:00,57.7,28.0,29.22,NNE,22,4.0,8.0,32,0.00,,,0.00,meteohub,2013-05-10 16:20:00,
2013-05-10 11:25:00,58.1,27.7,29.22,NE,45,6.0,8.0,31,0.00,,,0.00,meteohub,2013-05-10 16:25:00,
2013-05-10 11:30:00,58.1,26.1,29.22,NNE,22,6.0,8.0,29,0.00,,,0.00,meteohub,2013-05-10 16:30:00,
2013-05-10 11:35:00,57.6,26.4,29.22,NW,315,4.0,8.0,30,0.00,,,0.00,meteohub,2013-05-10 16:35:00,
2013-05-10 11:40:00,59.7,28.2,29.22,NW,315,3.0,6.0,30,0.00,,,0.00,meteohub,2013-05-10 16:40:00,
2013-05-10 11:45:00,59.7,26.6,29.22,North,0,2.0,6.0,28,0.00,,,0.00,meteohub,2013-05-10 16:45:00,
2013-05-10 11:50:00,60.3,27.9,29.22,NE,45,3.0,6.0,29,0.00,,,0.00,meteohub,2013-05-10 16:50:00,
2013-05-10 11:56:00,60.3,26.2,29.22,NNE,22,6.0,6.0,27,0.00,,,0.00,meteohub,2013-05-10 16:56:00,
2013-05-10 12:01:00,60.4,25.5,29.19,NE,45,4.0,6.0,26,0.00,,,0.00,meteohub,2013-05-10 17:01:00,
2013-05-10 12:06:00,61.0,25.9,29.19,WNW,292,6.0,6.0,26,0.00,,,0.00,meteohub,2013-05-10 17:06:00,
2013-05-10 12:11:00,61.7,25.5,29.19,NNE,22,4.0,7.0,25,0.00,,,0.00,meteohub,2013-05-10 17:11:00,
2013-05-10 12:16:00,61.0,24.1,29.22,NNE,22,6.0,8.0,24,0.00,,,0.00,meteohub,2013-05-10 17:16:00,
2013-05-10 12:21:00,61.0,24.1,29.22,NNE,22,3.0,8.0,24,0.00,,,0.00,meteohub,2013-05-10 17:21:00,
2013-05-10 12:26:00,62.2,26.1,29.22,NNE,22,4.0,8.0,25,0.00,,,0.00,meteohub,2013-05-10 17:26:00,
2013-05-10 12:32:00,60.8,23.9,29.22,ENE,68,5.0,8.0,24,0.00,,,0.00,meteohub,2013-05-10 17:32:00,
2013-05-10 12:37:00,60.4,23.5,29.22,NE,45,7.0,8.0,24,0.00,,,0.00,meteohub,2013-05-10 17:37:00,
2013-05-10 12:42:00,61.9,24.8,29.22,NNE,22,3.0,8.0,24,0.00,,,0.00,meteohub,2013-05-10 17:42:00,
2013-05-10 12:47:00,61.9,19.2,29.22,NNE,22,5.0,8.0,19,0.00,,,0.00,meteohub,2013-05-10 17:47:00,
2013-05-10 12:52:00,63.0,11.5,29.22,NNE,22,4.0,8.0,13,0.00,,,0.00,meteohub,2013-05-10 17:52:00,
2013-05-10 12:57:00,63.5,11.8,29.22,North,0,4.0,6.0,13,0.00,,,0.00,meteohub,2013-05-10 17:57:00,
2013-05-10 13:02:00,63.0,-5.3,29.22,NE,45,6.0,9.0,6,0.00,,,0.00,meteohub,2013-05-10 18:02:00,
2013-05-10 13:07:00,63.1,-8.9,29.22,ENE,68,4.0,9.0,5,0.00,,,0.00,meteohub,2013-05-10 18:07:00,
2013-05-10 13:12:00,63.9,-8.3,29.22,NE,45,4.0,8.0,5,0.00,,,0.00,meteohub,2013-05-10 18:12:00,
2013-05-10 13:17:00,64.2,-8.0,29.19,NW,315,2.0,8.0,5,0.00,,,0.00,meteohub,2013-05-10 18:17:00,
2013-05-10 13:22:00,65.5,-11.6,29.19,NE,45,2.0,7.0,4,0.00,,,0.00,meteohub,2013-05-10 18:22:00,
2013-05-10 13:27:00,66.9,-10.7,29.19,NE,45,3.0,7.0,4,0.00,,,0.00,meteohub,2013-05-10 18:27:00,
2013-05-10 13:32:00,66.0,-11.2,29.22,NNE,22,2.0,7.0,4,0.00,,,0.00,meteohub,2013-05-10 18:32:00,
2013-05-10 13:37:00,66.7,-10.7,29.22,NE,45,3.0,7.0,4,0.00,,,0.00,meteohub,2013-05-10 18:37:00,
2013-05-10 13:42:00,68.5,-9.6,29.22,South,180,2.0,7.0,4,0.00,,,0.00,meteohub,2013-05-10 18:42:00,
2013-05-10 13:47:00,68.9,-9.2,29.19,NE,45,0.0,6.0,4,0.00,,,0.00,meteohub,2013-05-10 18:47:00,
2013-05-10 13:52:00,69.6,-8.7,29.19,NE,45,1.0,5.0,4,0.00,,,0.00,meteohub,2013-05-10 18:52:00,
2013-05-10 13:57:00,70.0,-14.3,29.19,North,0,4.0,4.0,3,0.00,,,0.00,meteohub,2013-05-10 18:57:00,
2013-05-10 14:02:00,68.7,-9.4,29.16,NNE,22,4.0,5.0,4,0.00,,,0.00,meteohub,2013-05-10 19:02:00,
2013-05-10 14:07:00,70.7,-13.7,29.16,NNW,338,3.0,6.0,3,0.00,,,0.00,meteohub,2013-05-10 19:07:00,
2013-05-10 14:12:00,69.1,-9.0,29.16,NW,315,6.0,6.0,4,0.00,,,0.00,meteohub,2013-05-10 19:12:00,
2013-05-10 14:17:00,69.3,-9.0,29.16,WSW,248,1.0,6.0,4,0.00,,,0.00,meteohub,2013-05-10 19:17:00,
2013-05-10 14:22:00,68.7,-9.4,29.16,NW,315,4.0,6.0,4,0.00,,,0.00,meteohub,2013-05-10 19:22:00,
2013-05-10 14:27:00,69.6,-8.7,29.16,SSW,202,2.0,6.0,4,0.00,,,0.00,meteohub,2013-05-10 19:27:00,
2013-05-10 14:32:00,70.9,-13.7,29.16,West,270,0.0,6.0,3,0.00,,,0.00,meteohub,2013-05-10 19:32:00,
2013-05-10 14:37:00,70.3,-14.1,29.16,WNW,292,6.0,6.0,3,0.00,,,0.00,meteohub,2013-05-10 19:37:00,
2013-05-10 14:42:00,69.8,-14.4,29.16,West,270,3.0,7.0,3,0.00,,,0.00,meteohub,2013-05-10 19:42:00,
2013-05-10 14:47:00,70.5,-13.9,29.13,WNW,292,3.0,7.0,3,0.00,,,0.00,meteohub,2013-05-10 19:47:00,
2013-05-10 14:52:00,70.7,-13.7,29.13,NNW,338,3.0,7.0,3,0.00,,,0.00,meteohub,2013-05-10 19:52:00,
2013-05-10 14:57:00,71.8,-13.0,29.13,ENE,68,3.0,6.0,3,0.00,,,0.00,meteohub,2013-05-10 19:57:00,
2013-05-10 15:02:00,72.5,-12.6,29.13,WNW,292,0.0,6.0,3,0.00,,,0.00,meteohub,2013-05-10 20:02:00,
2013-05-10 15:07:00,71.4,-13.4,29.13,NNW,338,3.0,6.0,3,0.00,,,0.00,meteohub,2013-05-10 20:07:00,
2013-05-10 15:12:00,70.7,-13.7,29.13,NE,45,2.0,6.0,3,0.00,,,0.00,meteohub,2013-05-10 20:12:00,
2013-05-10 15:17:00,73.2,-12.1,29.16,WNW,292,4.0,6.0,3,0.00,,,0.00,meteohub,2013-05-10 20:17:00,
2013-05-10 15:22:00,71.8,-13.0,29.16,ENE,68,1.0,6.0,3,0.00,,,0.00,meteohub,2013-05-10 20:22:00,
2013-05-10 15:27:00,70.7,-13.7,29.16,NNW,338,3.0,6.0,3,0.00,,,0.00,meteohub,2013-05-10 20:27:00,
2013-05-10 15:32:00,72.1,-12.8,29.16,SSW,202,0.0,6.0,3,0.00,,,0.00,meteohub,2013-05-10 20:32:00,
2013-05-10 15:37:00,73.9,-19.5,29.16,WSW,248,3.0,6.0,2,0.00,,,0.00,meteohub,2013-05-10 20:37:00,
2013-05-10 15:42:00,74.1,-19.5,29.16,West,270,1.0,4.0,2,0.00,,,0.00,meteohub,2013-05-10 20:42:00,
2013-05-10 15:47:00,73.9,-19.5,29.16,NE,45,2.0,5.0,2,0.00,,,0.00,meteohub,2013-05-10 20:47:00,
2013-05-10 15:52:00,73.8,-19.7,29.16,North,0,1.0,5.0,2,0.00,,,0.00,meteohub,2013-05-10 20:52:00,
2013-05-10 15:57:00,73.9,-19.5,29.16,NE,45,3.0,4.0,2,0.00,,,0.00,meteohub,2013-05-10 20:57:00,
2013-05-10 16:02:00,73.4,-19.8,29.16,West,270,0.0,4.0,2,0.00,,,0.00,meteohub,2013-05-10 21:02:00,
2013-05-10 16:07:00,72.5,-12.6,29.16,WSW,248,2.0,4.0,3,0.00,,,0.00,meteohub,2013-05-10 21:07:00,
2013-05-10 16:12:00,72.9,-12.3,29.16,WSW,248,1.0,4.0,3,0.00,,,0.00,meteohub,2013-05-10 21:12:00,
2013-05-10 16:17:00,73.6,-19.7,29.13,West,270,4.0,4.0,2,0.00,,,0.00,meteohub,2013-05-10 21:17:00,
2013-05-10 16:22:00,71.6,-13.2,29.13,South,180,4.0,5.0,3,0.00,,,0.00,meteohub,2013-05-10 21:22:00,
2013-05-10 16:27:00,71.6,-13.2,29.13,SSE,158,2.0,5.0,3,0.00,,,0.00,meteohub,2013-05-10 21:27:00,
2013-05-10 16:32:00,71.8,-13.0,29.13,WSW,248,4.0,5.0,3,0.00,,,0.00,meteohub,2013-05-10 21:32:00,
2013-05-10 16:37:00,72.3,-12.6,29.13,ESE,112,0.0,7.0,3,0.00,,,0.00,meteohub,2013-05-10 21:37:00,
2013-05-10 16:42:00,72.7,-12.5,29.13,SSE,158,0.0,7.0,3,0.00,,,0.00,meteohub,2013-05-10 21:42:00,
2013-05-10 16:47:00,71.6,-13.2,29.13,NW,315,3.0,7.0,3,0.00,,,0.00,meteohub,2013-05-10 21:47:00,
2013-05-10 16:52:00,71.2,-13.4,29.13,WSW,248,3.0,3.0,3,0.00,,,0.00,meteohub,2013-05-10 21:52:00,
2013-05-10 16:57:00,71.2,-13.4,29.13,SSW,202,2.0,5.0,3,0.00,,,0.00,meteohub,2013-05-10 21:57:00,
2013-05-10 16:58:00,71.4,-13.4,29.13,SW,225,3.0,5.0,3,0.00,,,0.00,meteohub,2013-05-10 21:58:00,
2013-05-10 16:59:00,71.2,-13.4,29.10,WNW,292,3.0,5.0,3,0.00,,,0.00,meteohub,2013-05-10 21:59:00,
2013-05-10 17:00:00,70.9,-13.7,29.10,West,270,3.0,5.0,3,0.00,,,0.00,meteohub,2013-05-10 22:00:00,
2013-05-10 17:06:00,69.4,-8.9,29.10,West,270,7.0,7.0,4,0.00,,,0.00,meteohub,2013-05-10 22:06:00,
2013-05-10 17:11:00,70.5,-13.9,29.10,NNW,338,2.0,8.0,3,0.00,,,0.00,meteohub,2013-05-10 22:11:00,
2013-05-10 17:16:00,69.8,-14.4,29.10,West,270,6.0,8.0,3,0.00,,,0.00,meteohub,2013-05-10 22:16:00,
2013-05-10 17:21:00,69.3,-9.0,29.10,West,270,6.0,8.0,4,0.00,,,0.00,meteohub,2013-05-10 22:21:00,
2013-05-10 17:26:00,69.4,-8.9,29.10,West,270,2.0,8.0,4,0.00,,,0.00,meteohub,2013-05-10 22:26:00,
2013-05-10 17:31:00,69.4,-8.9,29.10,West,270,6.0,8.0,4,0.00,,,0.00,meteohub,2013-05-10 22:31:00,
2013-05-10 17:36:00,69.8,-14.4,29.10,NNW,338,4.0,6.0,3,0.00,,,0.00,meteohub,2013-05-10 22:36:00,
2013-05-10 17:42:00,68.7,-9.4,29.10,SW,225,4.0,6.0,4,0.00,,,0.00,meteohub,2013-05-10 22:42:00,
2013-05-10 17:47:00,68.5,-9.6,29.10,WSW,248,3.0,6.0,4,0.00,,,0.00,meteohub,2013-05-10 22:47:00,
2013-05-10 17:52:00,69.1,-9.0,29.10,North,0,2.0,6.0,4,0.00,,,0.00,meteohub,2013-05-10 22:52:00,
2013-05-10 17:57:00,68.5,-9.6,29.10,West,270,2.0,6.0,4,0.00,,,0.00,meteohub,2013-05-10 22:57:00,
2013-05-10 18:02:00,68.4,-9.6,29.07,WSW,248,3.0,5.0,4,0.00,,,0.00,meteohub,2013-05-10 23:02:00,
2013-05-10 18:07:00,68.5,-9.6,29.07,West,270,2.0,5.0,4,0.00,,,0.00,meteohub,2013-05-10 23:07:00,
2013-05-10 18:12:00,69.1,-9.0,29.07,WNW,292,0.0,5.0,4,0.00,,,0.00,meteohub,2013-05-10 23:12:00,
2013-05-10 18:17:00,68.9,-9.2,29.10,NW,315,3.0,5.0,4,0.00,,,0.00,meteohub,2013-05-10 23:17:00,
2013-05-10 18:22:00,68.4,-9.6,29.10,WSW,248,2.0,4.0,4,0.00,,,0.00,meteohub,2013-05-10 23:22:00,
2013-05-10 18:28:00,68.4,-9.6,29.10,WNW,292,2.0,4.0,4,0.00,,,0.00,meteohub,2013-05-10 23:28:00,
2013-05-10 18:33:00,69.1,-9.0,29.10,WNW,292,0.0,4.0,4,0.00,,,0.00,meteohub,2013-05-10 23:33:00,
2013-05-10 18:38:00,69.3,-9.0,29.10,NNE,22,0.0,4.0,4,0.00,,,0.00,meteohub,2013-05-10 23:38:00,
2013-05-10 18:43:00,68.7,-9.4,29.10,WSW,248,0.0,4.0,4,0.00,,,0.00,meteohub,2013-05-10 23:43:00,
2013-05-10 18:48:00,69.3,-9.0,29.10,NW,315,0.0,3.0,4,0.00,,,0.00,meteohub,2013-05-10 23:48:00,
2013-05-10 18:53:00,68.5,-9.6,29.10,NE,45,0.0,3.0,4,0.00,,,0.00,meteohub,2013-05-10 23:53:00,
2013-05-10 18:58:00,68.2,-9.8,29.10,West,270,0.0,4.0,4,0.00,,,0.00,meteohub,2013-05-10 23:58:00,
2013-05-10 19:04:00,67.5,-10.3,29.10,WSW,248,1.0,4.0,4,0.00,,,0.00,meteohub,2013-05-11 00:04:00,
2013-05-10 19:09:00,67.5,-10.3,29.10,NNW,338,2.0,3.0,4,0.00,,,0.00,meteohub,2013-05-11 00:09:00,
2013-05-10 19:14:00,66.7,-10.7,29.07,WSW,248,1.0,4.0,4,0.00,,,0.00,meteohub,2013-05-11 00:14:00,
2013-05-10 19:19:00,66.9,-10.7,29.07,WNW,292,2.0,4.0,4,0.00,,,0.00,meteohub,2013-05-11 00:19:00,
2013-05-10 19:24:00,66.7,-10.7,29.07,SW,225,0.0,4.0,4,0.00,,,0.00,meteohub,2013-05-11 00:24:00,
2013-05-10 19:29:00,66.4,-11.0,29.07,West,270,0.0,3.0,4,0.00,,,0.00,meteohub,2013-05-11 00:29:00,
2013-05-10 19:34:00,66.0,-11.2,29.07,WSW,248,0.0,3.0,4,0.00,,,0.00,meteohub,2013-05-11 00:34:00,
2013-05-10 19:39:00,65.7,-11.6,29.07,WNW,292,0.0,1.0,4,0.00,,,0.00,meteohub,2013-05-11 00:39:00,
2013-05-10 19:45:00,65.5,-11.6,29.07,West,270,0.0,2.0,4,0.00,,,0.00,meteohub,2013-05-11 00:45:00,
2013-05-10 19:50:00,65.1,-11.9,29.07,WSW,248,0.0,2.0,4,0.00,,,0.00,meteohub,2013-05-11 00:50:00,
2013-05-10 19:55:00,65.1,-11.9,29.07,WSW,248,0.0,1.0,4,0.00,,,0.00,meteohub,2013-05-11 00:55:00,
2013-05-10 20:00:00,64.8,-12.1,29.07,WSW,248,0.0,0.0,4,0.00,,,0.00,meteohub,2013-05-11 01:00:00,
2013-05-10 20:05:00,64.2,-8.0,29.07,WSW,248,0.0,0.0,5,0.00,,,0.00,meteohub,2013-05-11 01:05:00,
2013-05-10 20:10:00,63.9,-8.3,29.07,WSW,248,0.0,0.0,5,0.00,,,0.00,meteohub,2013-05-11 01:10:00,
2013-05-10 20:15:00,63.1,-8.9,29.07,WSW,248,0.0,0.0,5,0.00,,,0.00,meteohub,2013-05-11 01:15:00,
2013-05-10 20:20:00,62.8,-9.0,29.07,WSW,248,0.0,0.0,5,0.00,,,0.00,meteohub,2013-05-11 01:20:00,
2013-05-10 20:26:00,62.2,-9.4,29.07,WSW,248,0.0,0.0,5,0.00,,,0.00,meteohub,2013-05-11 01:26:00,
2013-05-10 20:31:00,61.3,-10.1,29.04,WSW,248,0.0,0.0,5,0.00,,,0.00,meteohub,2013-05-11 01:31:00,
2013-05-10 20:36:00,61.0,-10.3,29.04,WSW,248,0.0,0.0,5,0.00,,,0.00,meteohub,2013-05-11 01:36:00,
2013-05-10 20:41:00,61.0,-10.3,29.04,WSW,248,0.0,0.0,5,0.00,,,0.00,meteohub,2013-05-11 01:41:00,
2013-05-10 20:46:00,60.4,-7.1,29.04,SW,225,0.0,0.0,6,0.00,,,0.00,meteohub,2013-05-11 01:46:00,
2013-05-10 20:51:00,60.1,-7.2,29.04,SW,225,0.0,1.0,6,0.00,,,0.00,meteohub,2013-05-11 01:51:00,
2013-05-10 20:56:00,59.9,-7.4,29.04,SW,225,0.0,1.0,6,0.00,,,0.00,meteohub,2013-05-11 01:56:00,
2013-05-10 21:01:00,59.5,-7.6,29.04,SSW,202,0.0,0.0,6,0.00,,,0.00,meteohub,2013-05-11 02:01:00,
2013-05-10 21:07:00,58.8,-8.1,29.04,SSW,202,0.0,2.0,6,0.00,,,0.00,meteohub,2013-05-11 02:07:00,
2013-05-10 21:12:00,58.8,-8.1,29.04,SW,225,0.0,2.0,6,0.00,,,0.00,meteohub,2013-05-11 02:12:00,
2013-05-10 21:17:00,59.5,-7.6,29.04,WSW,248,0.0,0.0,6,0.00,,,0.00,meteohub,2013-05-11 02:17:00,
2013-05-10 21:22:00,59.7,-7.6,29.04,SW,225,0.0,0.0,6,0.00,,,0.00,meteohub,2013-05-11 02:22:00,
2013-05-10 21:27:00,59.7,-7.6,29.04,SW,225,0.0,0.0,6,0.00,,,0.00,meteohub,2013-05-11 02:27:00,
2013-05-10 21:32:00,59.7,-7.6,29.04,SSW,202,0.0,0.0,6,0.00,,,0.00,meteohub,2013-05-11 02:32:00,
2013-05-10 21:37:00,59.7,-7.6,29.04,SW,225,0.0,0.0,6,0.00,,,0.00,meteohub,2013-05-11 02:37:00,
2013-05-10 21:42:00,59.7,0.9,29.04,SW,225,0.0,0.0,9,0.00,,,0.00,meteohub,2013-05-11 02:42:00,
2013-05-10 21:47:00,59.7,10.6,29.07,SW,225,0.0,0.0,14,0.00,,,0.00,meteohub,2013-05-11 02:47:00,
2013-05-10 21:52:00,59.5,20.7,29.07,West,270,2.0,0.0,22,0.00,,,0.00,meteohub,2013-05-11 02:52:00,
2013-05-10 21:57:00,59.5,20.7,29.07,SW,225,1.0,3.0,22,0.00,,,0.00,meteohub,2013-05-11 02:57:00,
2013-05-10 22:02:00,59.7,23.9,29.07,SW,225,2.0,4.0,25,0.00,,,0.00,meteohub,2013-05-11 03:02:00,
2013-05-10 22:07:00,59.5,23.7,29.07,SW,225,1.0,4.0,25,0.00,,,0.00,meteohub,2013-05-11 03:07:00,
2013-05-10 22:12:00,59.4,25.5,29.07,WSW,248,4.0,4.0,27,0.00,,,0.00,meteohub,2013-05-11 03:12:00,
2013-05-10 22:17:00,59.2,26.1,29.04,West,270,0.0,4.0,28,0.00,,,0.00,meteohub,2013-05-11 03:17:00,
2013-05-10 22:22:00,59.0,26.8,29.04,SSW,202,0.0,4.0,29,0.00,,,0.00,meteohub,2013-05-11 03:22:00,
2013-05-10 22:27:00,58.5,28.0,29.04,SSE,158,0.0,4.0,31,0.00,,,0.00,meteohub,2013-05-11 03:27:00,
2013-05-10 22:32:00,57.7,27.3,29.04,SSE,158,0.0,3.0,31,0.00,,,0.00,meteohub,2013-05-11 03:32:00,
2013-05-10 22:37:00,57.6,28.8,29.04,SSE,158,0.0,2.0,33,0.00,,,0.00,meteohub,2013-05-11 03:37:00,
2013-05-10 22:42:00,57.2,29.1,29.04,NNE,22,0.0,0.0,34,0.00,,,0.00,meteohub,2013-05-11 03:42:00,
2013-05-10 22:47:00,57.0,29.7,29.04,NNE,22,0.0,0.0,35,0.00,,,0.00,meteohub,2013-05-11 03:47:00,
2013-05-10 22:52:00,57.0,29.7,29.04,NNE,22,0.0,0.0,35,0.00,,,0.00,meteohub,2013-05-11 03:52:00,
2013-05-10 22:57:00,56.7,30.0,29.04,ENE,68,0.0,0.0,36,0.00,,,0.00,meteohub,2013-05-11 03:57:00,
2013-05-10 23:01:00,56.5,29.8,29.04,SSE,158,0.0,0.0,36,0.00,,,0.00,meteohub,2013-05-11 04:01:00,
2013-05-10 23:02:00,56.5,29.8,29.04,SSE,158,0.0,0.0,36,0.00,,,0.00,meteohub,2013-05-11 04:02:00,
2013-05-10 23:03:00,56.5,29.8,29.04,South,180,1.0,0.0,36,0.00,,,0.00,meteohub,2013-05-11 04:03:00,
2013-05-10 23:08:00,56.5,29.8,29.04,SSE,158,0.0,2.0,36,0.00,,,0.00,meteohub,2013-05-11 04:08:00,
2013-05-10 23:13:00,56.5,30.6,29.04,SSE,158,4.0,4.0,37,0.00,,,0.00,meteohub,2013-05-11 04:13:00,
2013-05-10 23:18:00,56.5,30.6,29.04,South,180,2.0,4.0,37,0.00,,,0.00,meteohub,2013-05-11 04:18:00,
2013-05-10 23:23:00,56.7,30.7,29.04,WSW,248,2.0,4.0,37,0.00,,,0.00,meteohub,2013-05-11 04:23:00,
2013-05-10 23:29:00,56.3,30.4,29.04,SSE,158,0.0,4.0,37,0.00,,,0.00,meteohub,2013-05-11 04:29:00,
2013-05-10 23:34:00,56.1,30.9,29.04,SSW,202,2.0,4.0,38,0.00,,,0.00,meteohub,2013-05-11 04:34:00,
2013-05-10 23:39:00,56.3,30.4,29.04,South,180,1.0,3.0,37,0.00,,,0.00,meteohub,2013-05-11 04:39:00,
2013-05-10 23:44:00,56.3,30.4,29.04,SSW,202,1.0,3.0,37,0.00,,,0.00,meteohub,2013-05-11 04:44:00,
2013-05-10 23:49:00,56.5,30.6,29.04,SSE,158,3.0,3.0,37,0.00,,,0.00,meteohub,2013-05-11 04:49:00,
2013-05-10 23:54:00,56.5,30.6,29.04,SSW,202,0.0,3.0,37,0.00,,,0.00,meteohub,2013-05-11 04:54:00,
2013-05-10 23:59:00,56.5,31.3,29.04,SW,225,2.0,4.0,38,0.00,,,0.00,meteohub,2013-05-11 04:59:00,